Flag for U.S.A. Weather past 2 weeks in Orange, California, U.S.A.

Now
70 °F

Overcast.


Feels Like: 76 °F
Forecast: 64 / 77 °F
Wind: 5 mph from South

Location: John Wayne Airport-Orange County Airport

Current Time: Sep 4, 2015 at 9:45:21 AM

Latest Report: Sep 4, 2015 at 8:53 AM


Visibility: 10 mi

Pressure: 29.89 "Hg

Humidity: 59%

Dew point: 55 °F

Location of OrangeLocation

Historic Weather in Orange — Graph

°F

Orange temperature yesterday

Maximum temperature yesterday: 75 °F (at 12:53 PM)
Minimum temperature yesterday: 66 °F (at 1:53 AM)
Average temperature yesterday: 70 °F

Past Weeks' High & Low Weather Summary

 TemperatureHumidityPressure
High91 °F (Aug 28, 11:53 AM)93% (Aug 26, 3:53 AM)29.98 "Hg (Aug 26, 3:53 AM)
Low66 °F (Sep 3, 1:53 AM)32% (Aug 28, 11:53 AM)29.80 "Hg (Aug 28, 6:53 PM)
Average74 °F71%29.89 "Hg
* Reported Aug 20 7:53 AM — Sep 4 7:53 AM, Orange, Weather by CustomWeather, © 2015

Note: Actual official high and low records may vary slightly from our data, if they occured in-between our weather recording intervals... More about our weather records

Advertising

Orange weather history for previous 24 hours

 ConditionsComfort  
Time TempWeatherWind HumidityBarometerVisibility
7:53 AM
Fri, Sep 4
69 °FOvercast.5 mph66%29.88 "Hg10 mi
6:53 AM68 °FOvercast.5 mph68%29.87 "Hg10 mi
5:53 AM68 °FOvercast.5 mph68%29.85 "Hg10 mi
4:53 AM68 °FOvercast.5 mph68%29.85 "Hg10 mi
3:53 AM68 °FOvercast.6 mph68%29.85 "Hg10 mi
2:53 AM68 °FMostly cloudy.7 mph68%29.85 "Hg10 mi
1:53 AM68 °FOvercast.6 mph70%29.85 "Hg10 mi
12:53 AM68 °FMostly cloudy.7 mph73%29.86 "Hg10 mi
11:53 PM
Thu, Sep 3
67 °FPassing clouds.5 mph73%29.86 "Hg10 mi
10:53 PM67 °FPassing clouds.6 mph76%29.86 "Hg10 mi
9:53 PM68 °FPassing clouds.6 mph73%29.86 "Hg10 mi
8:53 PM69 °FClear.7 mph70%29.85 "Hg10 mi
7:53 PM69 °FPassing clouds.6 mph68%29.83 "Hg10 mi
6:53 PM70 °FPassing clouds.8 mph68%29.82 "Hg10 mi
5:53 PM72 °FPassing clouds.10 mph64%29.82 "Hg10 mi
4:53 PM73 °FPassing clouds.10 mph62%29.82 "Hg10 mi
3:53 PM75 °FSunny.9 mph55%29.83 "Hg10 mi
2:53 PM75 °FSunny.13 mph55%29.85 "Hg10 mi
1:53 PM75 °FPassing clouds.10 mph54%29.87 "Hg10 mi
12:53 PM75 °FPassing clouds.9 mph54%29.89 "Hg10 mi
11:53 AM73 °FScattered clouds.7 mph57%29.91 "Hg10 mi
10:53 AM71 °FPartly sunny.8 mph63%29.93 "Hg10 mi
9:53 AM69 °FPartly sunny.7 mph66%29.93 "Hg10 mi
Weather by CustomWeather, © 2015

See weather overviewHow to use our weather pages